[[{"header":{"parameterUnit":"m.s-1","parameterCategory":1,"la1":30.2991,"la2":30.254,"lo1":-89.0895,"lo2":-89.0444,"dy":0.0017,"dx":0.0017,"nx":28,"ny":28,"refTime":"2024-03-28T09:00:00:Z","depth":0,"parameterNumber":2,"parameterNumberName":"U-component_of_WINDS"},"data":[0,0,0,0,0,0,0,0,0,0,0,0,0,0,0,0,0,0,0,0,0,0,0,0,0,0,0,0,0,0,0,0,0,0,0,0,0,0,0,0,0,0,0,0,0,0,0,0,0,0,0,0,0,0,0,0,0,0,-0.5865,-0.5866,0,-0.5913,-0.5913,-0.5914,-0.5922,-0.5922,-0.5922,-0.5921,-0.5973,-0.5974,-0.5976,0,0,0,0,0,0,0,0,0,0,0,0,0,-0.5786,-0.5787,-0.5865,-0.5866,-0.5867,-0.5913,-0.5913,-0.5914,-0.5922,-0.5922,-0.5921,-0.5921,-0.5972,-0.5974,-0.5976,0,0,0,0,0,0,0,0,0,0,0,0,0,-0.5826,-0.5788,-0.5865,-0.5876,-0.5878,-0.5913,-0.5913,-0.5914,-0.5922,-0.5922,-0.5921,-0.5921,-0.5971,-0.5974,-0.5976,-0.6005,0,0,-0.5985,-0.5986,0,0,0,0,0,0,0,0,-0.5823,-0.5828,-0.5874,-0.5875,-0.5877,-0.5911,-0.5904,-0.5945,-0.5923,-0.5906,-0.5921,-0.592,-0.5953,-0.5957,-0.5967,-0.6007,-0.6009,-0.5985,-0.5986,-0.5987,-0.5988,0,0,0,0,0,0,0,-0.582,-0.5826,-0.5884,-0.5875,-0.5877,-0.588,-0.5885,-0.5912,-0.5932,-0.5907,-0.5908,-0.5913,-0.5954,-0.5965,-0.5969,-0.601,-0.5985,-0.5987,-0.5989,-0.599,-0.6078,-0.6079,0,0,0,0,0,0,-0.5815,-0.5824,-0.5883,-0.5886,-0.5848,-0.5882,-0.5887,-0.5901,-0.5932,-0.5936,-0.5914,-0.5913,-0.5961,-0.5965,-0.597,-0.6007,-0.5987,-0.599,-0.5991,-0.6077,-0.6078,-0.6079,0,0,0,0,0,0,-0.5814,-0.582,-0.5881,-0.5855,-0.5863,-0.5884,-0.5899,-0.5902,-0.5913,-0.5937,-0.5941,-0.5921,-0.596,-0.5967,-0.5996,-0.6009,-0.5991,-0.5993,-0.6076,-0.6078,-0.6079,-0.6079,0,0,0,0,0,0,-0.5811,-0.582,-0.583,-0.5855,-0.5864,-0.5905,-0.59,-0.5903,-0.5917,-0.5917,-0.5945,-0.5949,-0.596,-0.5993,-0.5999,-0.6012,-0.5996,-0.6075,-0.6077,-0.6078,-0.6078,-0.608,-0.6082,0,0,0,0,0,-0.5808,-0.5828,-0.583,-0.5837,-0.5877,-0.5906,-0.5911,-0.5923,-0.5918,-0.5929,-0.5945,-0.5948,-0.6006,-0.5995,-0.6003,-0.6017,-0.6075,-0.6076,-0.6078,-0.6078,-0.608,-0.6082,0,0,0,0,0,0,-0.5804,-0.5832,-0.5834,-0.5863,-0.5882,-0.5907,-0.5921,-0.5925,-0.5947,-0.5946,-0.5961,-0.5967,-0.5996,-0.601,-0.5997,-0.6047,-0.604,-0.6044,-0.6037,-0.604,-0.6042,-0.6038,-0.5998,0,0,0,0,0,-0.5807,-0.5826,-0.585,-0.5873,-0.5882,-0.59,-0.5913,-0.592,-0.5941,-0.595,-0.5967,-0.5988,-0.6011,-0.6026,-0.6049,-0.608,-0.6087,-0.6094,-0.6096,-0.6097,-0.61,-0.612,-0.6123,-0.6085,-0.6085,-0.6085,0,0,-0.5812,-0.5829,-0.5841,-0.5872,-0.5888,-0.591,-0.5907,-0.5929,-0.5946,-0.5953,-0.5983,-0.5996,-0.6021,-0.6052,-0.6067,-0.6064,-0.6112,-0.6099,-0.61,-0.6103,-0.6122,-0.6125,-0.6129,-0.6086,-0.6086,-0.6086,0,0,-0.5833,-0.5847,-0.5869,-0.5884,-0.5908,-0.592,-0.5925,-0.595,-0.5959,-0.5989,-0.5995,-0.6016,-0.6055,-0.6073,-0.6087,-0.6115,-0.612,-0.6122,-0.6133,-0.6152,-0.6155,-0.6157,-0.6169,-0.6173,-0.6125,-0.6125,-0.6125,0,-0.5837,-0.5868,-0.588,-0.5902,-0.5917,-0.5924,-0.5947,-0.5962,-0.5992,-0.6002,-0.5998,-0.6049,-0.6066,-0.6102,-0.6109,-0.612,-0.6127,-0.612,-0.6153,-0.6156,-0.6159,-0.617,-0.6175,-0.6125,-0.6125,-0.6125,-0.6125,0,-0.5873,-0.5895,-0.5909,-0.5938,-0.5954,-0.5976,-0.5992,-0.6008,-0.6014,-0.6027,-0.6058,-0.6078,-0.6106,-0.6115,-0.6122,-0.6153,-0.6151,-0.615,-0.6144,-0.6163,-0.6174,-0.6178,-0.6126,-0.6126,-0.6126,-0.6126,0,0,-0.5893,-0.5927,-0.5932,-0.5946,-0.5973,-0.5991,-0.6014,-0.6041,-0.6054,-0.6075,-0.6096,-0.613,-0.613,-0.6146,-0.6155,-0.6171,-0.6195,-0.6168,-0.6169,-0.6174,-0.6232,-0.6233,-0.6238,-0.6197,-0.6198,-0.6199,-0.6231,0,-0.5918,-0.5959,-0.597,-0.6006,-0.6027,-0.6035,-0.6056,-0.6075,-0.6088,-0.6109,-0.6124,-0.6148,-0.6145,-0.6155,-0.6171,-0.6188,-0.6207,-0.6186,-0.6219,-0.622,-0.6214,-0.6244,-0.6245,-0.6274,-0.6235,-0.6235,-0.6236,0,-0.5952,-0.5973,-0.6011,-0.6036,-0.6046,-0.6064,-0.609,-0.6109,-0.6132,-0.6141,-0.6159,-0.6167,-0.6194,-0.6185,-0.6223,-0.6209,-0.6223,-0.6234,-0.6235,-0.6239,-0.623,-0.625,-0.6283,-0.6288,-0.6243,-0.6242,-0.6242,0,-0.5965,-0.6003,-0.603,-0.6041,-0.6071,-0.6084,-0.6098,-0.612,-0.6135,-0.6158,-0.6169,-0.6195,-0.6209,-0.623,-0.6245,-0.6237,-0.6283,-0.6275,-0.6292,-0.6292,-0.6302,-0.6301,-0.6339,-0.6309,-0.6309,-0.6309,-0.6309,0,-0.5992,-0.6016,-0.6036,-0.6053,-0.608,-0.6094,-0.612,-0.6134,-0.6154,-0.6175,-0.6183,-0.6203,-0.6221,-0.6244,-0.6256,-0.6287,-0.6293,-0.6302,-0.6305,-0.6302,-0.6301,-0.6312,-0.6311,-0.631,-0.631,-0.6309,-0.6309,0,-0.6011,-0.6026,-0.6057,-0.6082,-0.6089,-0.6108,-0.6131,-0.6149,-0.6162,-0.6189,-0.6196,-0.6217,-0.6245,-0.6262,-0.6297,-0.6305,-0.6339,-0.6341,-0.6331,-0.6333,-0.6349,-0.6348,-0.6396,-0.6404,-0.6368,-0.6368,-0.6368,0,-0.6028,-0.6046,-0.6074,-0.6088,-0.6101,-0.6124,-0.614,-0.6154,-0.6171,-0.6199,-0.6214,-0.6242,-0.6265,-0.6309,-0.6328,-0.6356,-0.6359,-0.6374,-0.6363,-0.636,-0.6361,-0.636,-0.6363,-0.6376,-0.6377,-0.6377,-0.6377,0,-0.6058,-0.6064,-0.6086,-0.6111,-0.613,-0.615,-0.6171,-0.6182,-0.62,-0.6219,-0.6246,-0.6264,-0.63,-0.6328,-0.6358,-0.6373,-0.6379,-0.638,-0.6386,-0.6383,-0.6377,-0.6382,-0.6337,-0.6379,-0.6379,-0.6379,-0.6379,-0.6379,-0.6078,-0.6094,-0.6116,-0.6141,-0.6158,-0.6177,-0.6195,-0.6211,-0.6234,-0.6263,-0.6271,-0.6301,-0.6325,-0.6364,-0.638,-0.6405,-0.6403,-0.641,-0.6413,-0.6415,-0.6416,-0.6372,-0.641,-0.641,-0.641,-0.641,-0.641,0,-0.6109,-0.6123,-0.6146,-0.6174,-0.6194,-0.6196,-0.6219,-0.6236,-0.6262,-0.6283,-0.6306,-0.6339,-0.6366,-0.6388,-0.6417,-0.6432,-0.6436,-0.644,-0.6439,-0.6443,-0.6415,-0.6408,-0.6436,-0.6436,-0.6436,-0.6436,-0.6436,-0.6436,-0.6128,-0.6156,-0.6166,-0.6204,-0.6219,-0.6247,-0.626,-0.6279,-0.6296,-0.6332,-0.6355,-0.6368,-0.6391,-0.6421,-0.6447,-0.6453,-0.6464,-0.6467,-0.6474,-0.6448,-0.6445,-0.6442,-0.6436,-0.6469,-0.6469,-0.65,-0.65,-0.6501]},{"header":{"parameterUnit":"m.s-1","parameterCategory":1,"la1":30.2991,"la2":30.254,"lo1":-89.0895,"lo2":-89.0444,"dy":0.0017,"dx":0.0017,"nx":28,"ny":28,"refTime":"2024-03-28T09:00:00:Z","depth":0,"parameterNumber":3,"parameterNumberName":"V-component_of_WINDS"},"data":[0,0,0,0,0,0,0,0,0,0,0,0,0,0,0,0,0,0,0,0,0,0,0,0,0,0,0,0,0,0,0,0,0,0,0,0,0,0,0,0,0,0,0,0,0,0,0,0,0,0,0,0,0,0,0,0,0,0,5.9116,5.9117,0,5.9169,5.917,5.9171,5.91,5.9097,5.9095,5.9092,5.9143,5.9147,5.915,0,0,0,0,0,0,0,0,0,0,0,0,0,5.8949,5.8952,5.9116,5.9117,5.9118,5.9169,5.917,5.9171,5.91,5.9097,5.9094,5.9091,5.9142,5.9146,5.9151,0,0,0,0,0,0,0,0,0,0,0,0,0,5.9014,5.8953,5.9116,5.9089,5.9087,5.9169,5.917,5.9171,5.9101,5.9097,5.9093,5.909,5.914,5.9146,5.9151,5.9262,0,0,5.9168,5.9171,0,0,0,0,0,0,0,0,5.901,5.902,5.9092,5.9091,5.9089,5.9124,5.9129,5.9201,5.9102,5.9095,5.9092,5.9088,5.914,5.9145,5.9163,5.9264,5.9267,5.9169,5.9172,5.9175,5.9176,0,0,0,0,0,0,0,5.9006,5.9017,5.9137,5.9093,5.9091,5.9072,5.9077,5.9143,5.9138,5.9096,5.9091,5.9098,5.9138,5.9158,5.9164,5.9267,5.9169,5.9174,5.9177,5.9179,5.9458,5.9462,0,0,0,0,0,0,5.9005,5.9014,5.9135,5.9139,5.9039,5.9078,5.9084,5.9117,5.9137,5.9137,5.9101,5.9095,5.915,5.9157,5.9165,5.9294,5.9175,5.918,5.9183,5.9454,5.9459,5.9463,0,0,0,0,0,0,5.9002,5.9017,5.9133,5.9075,5.9088,5.9085,5.9123,5.912,5.914,5.9142,5.914,5.9123,5.9148,5.9158,5.9238,5.9294,5.9182,5.9188,5.9449,5.9456,5.9461,5.9553,0,0,0,0,0,0,5.8997,5.9016,5.9059,5.9077,5.9092,5.9207,5.9126,5.9123,5.915,5.9142,5.9161,5.9161,5.9145,5.923,5.9244,5.93,5.9192,5.9444,5.9452,5.9459,5.9544,5.9561,5.9575,0,0,0,0,0,5.8992,5.9083,5.9062,5.9077,5.9146,5.921,5.9219,5.92,5.9155,5.9197,5.9198,5.916,5.9287,5.9239,5.9253,5.9313,5.944,5.945,5.9459,5.9538,5.9558,5.9575,0,0,0,0,0,0,5.9072,5.9085,5.9062,5.9162,5.9186,5.9198,5.9251,5.9223,5.9259,5.9249,5.9223,5.9228,5.9314,5.9321,5.9268,5.9419,5.9356,5.9368,5.9411,5.943,5.9445,5.944,5.9197,0,0,0,0,0,5.9102,5.9154,5.9162,5.9249,5.9262,5.9255,5.9282,5.9266,5.9289,5.9298,5.9305,5.9328,5.9372,5.9402,5.9443,5.9546,5.9547,5.9593,5.9609,5.9621,5.9632,5.9683,5.9703,5.9493,5.9493,5.9493,0,0,5.9163,5.9176,5.9211,5.9266,5.9282,5.9334,5.9264,5.9323,5.9361,5.9307,5.9382,5.9388,5.9412,5.9503,5.9544,5.9512,5.969,5.9633,5.9643,5.9647,5.9695,5.9715,5.9732,5.95,5.9498,5.9497,0,0,5.93,5.9318,5.9391,5.9408,5.9434,5.9428,5.9446,5.9463,5.9464,5.954,5.9499,5.9544,5.9622,5.9639,5.9658,5.9801,5.9766,5.9815,5.9894,5.9945,5.9961,5.9976,6.0024,6.0041,5.9825,5.9826,5.9826,0,5.9373,5.9452,5.9432,5.9493,5.9517,5.9471,5.9543,5.9561,5.9598,5.9615,5.958,5.9674,5.9687,5.978,5.9815,5.9833,5.985,5.9811,5.9961,5.9975,5.9988,6.0033,6.0052,5.9831,5.9831,5.983,5.983,0,5.9538,5.9593,5.9649,5.9686,5.9717,5.9784,5.9771,5.9804,5.9785,5.9782,5.9858,5.9872,5.9913,5.9935,5.9916,6.0024,6.0004,5.9965,5.9901,6.0014,6.0056,6.0073,5.9839,5.9837,5.9835,5.9834,0,0,5.9728,5.9752,5.9773,5.9788,5.9812,5.9853,5.9917,5.9958,5.9985,6.0013,6.0063,6.013,6.0093,6.0115,6.0098,6.0143,6.0251,6.0098,6.0098,6.0124,6.0367,6.0394,6.0415,6.0229,6.0232,6.0235,6.0364,0,5.9863,5.9974,5.9956,6.0062,6.0111,6.0067,6.0121,6.0141,6.014,6.018,6.0178,6.0224,6.0175,6.0187,6.023,6.0229,6.0299,6.022,6.0273,6.0275,6.0266,6.0437,6.0467,6.0588,6.0381,6.0384,6.0386,0,6.0037,6.007,6.0181,6.0194,6.0214,6.0264,6.0298,6.0338,6.0359,6.0354,6.0378,6.0352,6.0413,6.0349,6.0431,6.0377,6.0398,6.0401,6.0405,6.0407,6.0336,6.0441,6.0627,6.0644,6.0412,6.041,6.0408,0,6.016,6.0233,6.0307,6.0322,6.0341,6.0376,6.0386,6.0402,6.0427,6.0457,6.0473,6.051,6.053,6.0558,6.0542,6.0497,6.0625,6.0561,6.0621,6.0622,6.0648,6.0647,6.0837,6.0667,6.0666,6.0666,6.0666,0,6.0312,6.0381,6.0363,6.0409,6.0483,6.0462,6.0536,6.054,6.0554,6.0599,6.0563,6.0605,6.0582,6.0622,6.061,6.0677,6.0687,6.0684,6.0679,6.0686,6.0686,6.0697,6.0687,6.0671,6.067,6.0669,6.0668,0,6.0462,6.0453,6.0531,6.0542,6.0547,6.0601,6.0609,6.0651,6.0647,6.0703,6.0715,6.0708,6.0752,6.074,6.0788,6.078,6.0865,6.0851,6.0858,6.0853,6.0913,6.0907,6.1116,6.1141,6.0957,6.0959,6.096,0,6.0558,6.061,6.0626,6.0653,6.0665,6.071,6.0735,6.0715,6.0742,6.0768,6.0806,6.0847,6.0879,6.0952,6.095,6.0986,6.0971,6.1042,6.0976,6.098,6.0969,6.0965,6.0968,6.1054,6.1056,6.1058,6.106,0,6.0729,6.0722,6.076,6.0796,6.0826,6.0854,6.0877,6.0901,6.0882,6.0915,6.096,6.0985,6.1033,6.1074,6.1106,6.1114,6.1083,6.108,6.1096,6.1102,6.1102,6.11,6.089,6.1075,6.1074,6.1073,6.1072,6.1071,6.0853,6.0896,6.0913,6.0956,6.0971,6.0994,6.1033,6.1033,6.107,6.1109,6.1094,6.1145,6.1162,6.1202,6.1214,6.1252,6.1225,6.1248,6.1253,6.1259,6.1265,6.1098,6.1259,6.1258,6.1258,6.1257,6.1257,0,6.102,6.1028,6.1068,6.1101,6.1134,6.1103,6.1127,6.1156,6.1202,6.122,6.1252,6.1302,6.1341,6.1342,6.1378,6.1408,6.1394,6.1418,6.1414,6.1416,6.1289,6.1271,6.1428,6.1428,6.1428,6.1428,6.1428,6.1428,6.111,6.1179,6.1174,6.1249,6.1257,6.1307,6.1323,6.1342,6.1356,6.1414,6.1446,6.1447,6.1458,6.1493,6.1527,6.1526,6.1539,6.1567,6.1561,6.1442,6.1425,6.1409,6.1391,6.1571,6.1572,6.1684,6.1685,6.1686]}]]